Location: Hastringsfeld
(50.9620°N, 10.4787°E)
Time: 03:34:07
(UTC+00:00)

Cosmos 2360 Rocket - Pass Details

Date: 26 September 2023
Orbit: 832 x 845 km, 71.0° (Epoch: 29 November)

Event Time Altitude Azimuth Distance (km) Brightness Sun altitude
Rises 04:12:02 0° 322° (NW) 3,414 5.1 -9.9°
Reaches altitude 10° 04:14:53 10° 310° (NW) 2,475 4.3 -9.5°
Maximum altitude 04:19:23 25° 257° (WSW) 1,649 3.1 -8.8°
Drops below altitude 10° 04:23:53 10° 204° (SSW) 2,463 4.3 -8.1°
Sets 04:26:42 0° 192° (SSW) 3,392 5.1 -7.6°
